[[{"header":{"parameterUnit":"m.s-1","parameterCategory":1,"la1":30.2991,"la2":30.254,"lo1":-89.0895,"lo2":-89.0444,"dy":0.0017,"dx":0.0017,"nx":28,"ny":28,"refTime":"2025-02-26T09:00:00:Z","depth":0,"parameterNumber":2,"parameterNumberName":"U-component_of_WINDS"},"data":[0,0,0,0,0,0,0,0,0,0,0,0,0,0,0,0,0,0,0,0,0,0,0,0,0,0,0,0,0,0,0,0,0,0,0,0,0,0,0,0,0,0,0,0,0,0,0,0,0,0,0,0,0,0,0,0,0,0,-0.7626,-0.7625,0,-0.7565,-0.7564,-0.7563,-0.7532,-0.7531,-0.7531,-0.7531,-0.7468,-0.7467,-0.7465,0,0,0,0,0,0,0,0,0,0,0,0,0,-0.7716,-0.7715,-0.7626,-0.7625,-0.7624,-0.7565,-0.7564,-0.7563,-0.7532,-0.7531,-0.7531,-0.7531,-0.7469,-0.7467,-0.7465,0,0,0,0,0,0,0,0,0,0,0,0,0,-0.7668,-0.7714,-0.7626,-0.7602,-0.7599,-0.7565,-0.7564,-0.7563,-0.7532,-0.7531,-0.7531,-0.7531,-0.747,-0.7467,-0.7465,-0.7451,0,0,-0.7457,-0.7456,0,0,0,0,0,0,0,0,-0.7671,-0.7665,-0.7606,-0.7603,-0.76,-0.7556,-0.7573,-0.7525,-0.7532,-0.7557,-0.7531,-0.7531,-0.7498,-0.7493,-0.7481,-0.7448,-0.7445,-0.7457,-0.7456,-0.7455,-0.7454,0,0,0,0,0,0,0,-0.7674,-0.7667,-0.7602,-0.7605,-0.7601,-0.7594,-0.7587,-0.7564,-0.7528,-0.7555,-0.7552,-0.7546,-0.7496,-0.7484,-0.748,-0.7444,-0.7457,-0.7455,-0.7453,-0.7452,-0.7397,-0.7397,0,0,0,0,0,0,-0.7682,-0.767,-0.7604,-0.76,-0.7636,-0.7592,-0.7584,-0.757,-0.7529,-0.7522,-0.7546,-0.7544,-0.7488,-0.7483,-0.7477,-0.7458,-0.7455,-0.7452,-0.7451,-0.7397,-0.7397,-0.7397,0,0,0,0,0,0,-0.7684,-0.7676,-0.7606,-0.7634,-0.7625,-0.7591,-0.7575,-0.7569,-0.7557,-0.7522,-0.7515,-0.754,-0.7488,-0.7481,-0.7458,-0.7456,-0.7451,-0.7449,-0.7397,-0.7397,-0.7397,-0.742,0,0,0,0,0,0,-0.7686,-0.7677,-0.7671,-0.7635,-0.7624,-0.7587,-0.7574,-0.7568,-0.7553,-0.755,-0.7514,-0.7508,-0.7487,-0.7462,-0.7455,-0.7452,-0.7447,-0.7397,-0.7397,-0.7397,-0.7419,-0.7421,-0.7422,0,0,0,0,0,-0.769,-0.768,-0.7671,-0.7663,-0.7616,-0.7587,-0.7581,-0.7557,-0.7552,-0.7546,-0.7524,-0.751,-0.7457,-0.746,-0.7452,-0.7448,-0.7397,-0.7397,-0.7397,-0.7419,-0.742,-0.7422,0,0,0,0,0,0,-0.7717,-0.7675,-0.7664,-0.7642,-0.7619,-0.7582,-0.7573,-0.756,-0.7537,-0.7536,-0.7507,-0.7499,-0.7479,-0.7461,-0.7465,-0.7433,-0.7425,-0.7424,-0.7445,-0.7446,-0.7448,-0.7452,-0.7445,0,0,0,0,0,-0.772,-0.7701,-0.7665,-0.7649,-0.7638,-0.7608,-0.7595,-0.7578,-0.7553,-0.7543,-0.7518,-0.7494,-0.7472,-0.7458,-0.7436,-0.7417,-0.7409,-0.7411,-0.7412,-0.7414,-0.7412,-0.7401,-0.7402,-0.7397,-0.7397,-0.7397,0,0,-0.7727,-0.7702,-0.7691,-0.7654,-0.7634,-0.7615,-0.76,-0.758,-0.7565,-0.754,-0.7516,-0.7498,-0.7469,-0.7448,-0.7437,-0.7433,-0.7412,-0.7414,-0.7415,-0.7413,-0.7401,-0.7402,-0.7402,-0.7397,-0.7397,-0.7397,0,0,-0.7729,-0.7708,-0.7693,-0.7673,-0.7643,-0.7623,-0.762,-0.7585,-0.7572,-0.7548,-0.7529,-0.7511,-0.7474,-0.7454,-0.744,-0.7436,-0.7422,-0.743,-0.7437,-0.7426,-0.7426,-0.7427,-0.7425,-0.7425,-0.7429,-0.7429,-0.7429,0,-0.7742,-0.7711,-0.7687,-0.7668,-0.7652,-0.7629,-0.7613,-0.7595,-0.7559,-0.7549,-0.7545,-0.7498,-0.7477,-0.7451,-0.745,-0.7439,-0.7434,-0.7433,-0.7428,-0.7428,-0.7428,-0.7426,-0.7426,-0.743,-0.743,-0.743,-0.7429,0,-0.7728,-0.7708,-0.7699,-0.7665,-0.7648,-0.7631,-0.7604,-0.759,-0.7576,-0.7557,-0.7533,-0.7507,-0.748,-0.7473,-0.7458,-0.7445,-0.7443,-0.7434,-0.7426,-0.743,-0.7428,-0.7427,-0.7431,-0.7431,-0.7431,-0.743,0,0,-0.7745,-0.7698,-0.7695,-0.7679,-0.7645,-0.7628,-0.7611,-0.7584,-0.7573,-0.7549,-0.7534,-0.7503,-0.7495,-0.7478,-0.7461,-0.7452,-0.7451,-0.7444,-0.7443,-0.7446,-0.7435,-0.7441,-0.7441,-0.7442,-0.7442,-0.7441,-0.7437,0,-0.7742,-0.7708,-0.7686,-0.7661,-0.7642,-0.762,-0.7604,-0.7582,-0.7564,-0.7545,-0.7525,-0.7504,-0.7495,-0.7485,-0.7475,-0.7453,-0.7448,-0.7453,-0.7427,-0.7426,-0.7434,-0.744,-0.7446,-0.7443,-0.7436,-0.7436,-0.7436,0,-0.7734,-0.7711,-0.7684,-0.7652,-0.7643,-0.763,-0.7604,-0.7586,-0.756,-0.7548,-0.753,-0.7513,-0.7493,-0.7488,-0.7461,-0.7465,-0.7453,-0.7441,-0.744,-0.7436,-0.7431,-0.7435,-0.7442,-0.7441,-0.7434,-0.7434,-0.7434,0,-0.7748,-0.7711,-0.769,-0.7678,-0.764,-0.7631,-0.7615,-0.7589,-0.7574,-0.7552,-0.7542,-0.7518,-0.7504,-0.7486,-0.7463,-0.7461,-0.7438,-0.7431,-0.7427,-0.7428,-0.7422,-0.7423,-0.7427,-0.7416,-0.7416,-0.7416,-0.7416,0,-0.7747,-0.7731,-0.7696,-0.7683,-0.7666,-0.764,-0.7624,-0.7606,-0.7583,-0.7567,-0.7547,-0.7532,-0.7503,-0.7484,-0.7467,-0.7447,-0.7441,-0.7431,-0.7426,-0.7432,-0.7433,-0.7423,-0.7422,-0.7416,-0.7416,-0.7416,-0.7416,0,-0.776,-0.7735,-0.7711,-0.7678,-0.7669,-0.7657,-0.7629,-0.7616,-0.7597,-0.7577,-0.757,-0.7541,-0.7519,-0.7494,-0.7464,-0.7452,-0.7433,-0.7427,-0.7442,-0.7439,-0.7436,-0.7437,-0.7433,-0.7431,-0.7423,-0.7423,-0.7423,0,-0.776,-0.7748,-0.7713,-0.77,-0.7685,-0.7665,-0.765,-0.7625,-0.7611,-0.7581,-0.7571,-0.7547,-0.7527,-0.7492,-0.7468,-0.7445,-0.7437,-0.7438,-0.7434,-0.744,-0.7437,-0.7438,-0.7436,-0.7439,-0.7439,-0.7439,-0.7439,0,-0.7764,-0.7752,-0.7731,-0.7707,-0.769,-0.7669,-0.7648,-0.7639,-0.761,-0.7594,-0.7571,-0.7555,-0.7524,-0.7501,-0.7475,-0.7458,-0.7444,-0.7441,-0.7439,-0.7445,-0.7454,-0.7448,-0.7444,-0.7441,-0.7441,-0.7441,-0.7441,-0.7441,-0.777,-0.7758,-0.7731,-0.7709,-0.769,-0.7671,-0.7657,-0.7637,-0.7617,-0.759,-0.7577,-0.7554,-0.7529,-0.7492,-0.7476,-0.7458,-0.7454,-0.7451,-0.745,-0.7449,-0.7451,-0.7457,-0.7453,-0.7453,-0.7453,-0.7453,-0.7453,0,-0.7772,-0.7754,-0.7734,-0.7704,-0.7687,-0.7675,-0.7651,-0.7638,-0.7618,-0.7595,-0.7576,-0.7549,-0.7527,-0.7502,-0.7478,-0.7468,-0.7461,-0.7462,-0.7462,-0.7459,-0.7456,-0.746,-0.7469,-0.7469,-0.7469,-0.7469,-0.7469,-0.7469,-0.7771,-0.775,-0.7736,-0.7706,-0.7688,-0.7665,-0.7652,-0.7634,-0.7617,-0.7588,-0.7569,-0.7553,-0.753,-0.7504,-0.7483,-0.7476,-0.7468,-0.7471,-0.7463,-0.746,-0.7459,-0.7458,-0.7461,-0.747,-0.747,-0.7467,-0.7467,-0.7467]},{"header":{"parameterUnit":"m.s-1","parameterCategory":1,"la1":30.2991,"la2":30.254,"lo1":-89.0895,"lo2":-89.0444,"dy":0.0017,"dx":0.0017,"nx":28,"ny":28,"refTime":"2025-02-26T09:00:00:Z","depth":0,"parameterNumber":3,"parameterNumberName":"V-component_of_WINDS"},"data":[0,0,0,0,0,0,0,0,0,0,0,0,0,0,0,0,0,0,0,0,0,0,0,0,0,0,0,0,0,0,0,0,0,0,0,0,0,0,0,0,0,0,0,0,0,0,0,0,0,0,0,0,0,0,0,0,0,0,2.684,2.684,0,2.6847,2.6847,2.6847,2.6823,2.6822,2.6821,2.6821,2.6827,2.6828,2.6829,0,0,0,0,0,0,0,0,0,0,0,0,0,2.6804,2.6805,2.684,2.684,2.684,2.6847,2.6847,2.6847,2.6823,2.6822,2.6821,2.682,2.6827,2.6828,2.6829,0,0,0,0,0,0,0,0,0,0,0,0,0,2.6816,2.6805,2.684,2.6829,2.6828,2.6847,2.6847,2.6847,2.6823,2.6822,2.6821,2.682,2.6827,2.6828,2.6829,2.6859,0,0,2.6833,2.6834,0,0,0,0,0,0,0,0,2.6816,2.6818,2.683,2.6829,2.6828,2.6833,2.6837,2.6851,2.6823,2.6825,2.6821,2.6819,2.683,2.6831,2.6835,2.6859,2.6859,2.6833,2.6834,2.6835,2.6835,0,0,0,0,0,0,0,2.6815,2.6817,2.6842,2.683,2.6829,2.6823,2.6824,2.6839,2.6833,2.6825,2.6823,2.6824,2.6829,2.6833,2.6835,2.6859,2.6833,2.6834,2.6835,2.6836,2.6909,2.691,0,0,0,0,0,0,2.6816,2.6817,2.6842,2.6843,2.6819,2.6825,2.6825,2.6832,2.6833,2.6832,2.6825,2.6823,2.6832,2.6833,2.6835,2.687,2.6835,2.6836,2.6836,2.6908,2.6909,2.691,0,0,0,0,0,0,2.6815,2.6818,2.6842,2.6829,2.6832,2.6826,2.6835,2.6833,2.6837,2.6833,2.6832,2.6831,2.6831,2.6833,2.6853,2.687,2.6836,2.6837,2.6906,2.6908,2.691,2.694,0,0,0,0,0,0,2.6814,2.6818,2.6829,2.683,2.6833,2.6861,2.6836,2.6834,2.684,2.6837,2.6838,2.6837,2.683,2.6851,2.6854,2.6871,2.6838,2.6905,2.6907,2.6909,2.6938,2.6943,2.6947,0,0,0,0,0,2.6813,2.6838,2.683,2.6833,2.6847,2.6862,2.6863,2.6855,2.6841,2.6853,2.685,2.6837,2.6867,2.6854,2.6857,2.6874,2.6904,2.6906,2.6909,2.6936,2.6942,2.6947,0,0,0,0,0,0,2.6839,2.6837,2.6829,2.6855,2.6859,2.6857,2.6872,2.6861,2.6869,2.6866,2.6855,2.6856,2.6878,2.6878,2.6863,2.6903,2.6883,2.6887,2.6902,2.6908,2.6913,2.6913,2.684,0,0,0,0,0,2.6848,2.6861,2.6858,2.6881,2.6883,2.6877,2.6883,2.6876,2.688,2.6881,2.688,2.6884,2.6894,2.6901,2.691,2.6937,2.6937,2.6951,2.6955,2.6959,2.6963,2.6978,2.6984,2.6919,2.6919,2.6919,0,0,2.6867,2.6867,2.6876,2.6886,2.6888,2.6901,2.6879,2.6893,2.6903,2.6883,2.6903,2.6902,2.6905,2.6929,2.694,2.693,2.6981,2.6963,2.6966,2.6967,2.6981,2.6987,2.6993,2.6921,2.6921,2.692,0,0,2.6907,2.6909,2.6928,2.6931,2.6934,2.693,2.6934,2.6935,2.6934,2.6953,2.6939,2.6949,2.6967,2.697,2.6974,2.7015,2.7004,2.7018,2.7044,2.7058,2.7063,2.7068,2.7083,2.7089,2.7021,2.7021,2.7022,0,2.693,2.6949,2.6939,2.6955,2.696,2.6943,2.6963,2.6965,2.6972,2.6976,2.6964,2.6986,2.6987,2.7012,2.7022,2.7025,2.703,2.7019,2.7063,2.7068,2.7072,2.7087,2.7092,2.7023,2.7023,2.7023,2.7023,0,2.6977,2.6991,2.7006,2.7013,2.7019,2.7037,2.703,2.7037,2.703,2.7027,2.7046,2.7046,2.7056,2.7061,2.7053,2.7085,2.7078,2.7065,2.7046,2.708,2.7094,2.7099,2.7026,2.7025,2.7025,2.7024,0,0,2.7036,2.7037,2.7043,2.7046,2.7048,2.7058,2.7075,2.7084,2.7091,2.7095,2.7109,2.7125,2.7113,2.7117,2.7109,2.7122,2.7156,2.7108,2.7107,2.7117,2.7191,2.7202,2.7209,2.7148,2.7149,2.715,2.7191,0,2.7077,2.7106,2.7097,2.7126,2.7139,2.7122,2.7137,2.714,2.7137,2.7147,2.7143,2.7155,2.7138,2.714,2.7152,2.7149,2.7171,2.7146,2.7161,2.7162,2.7162,2.7216,2.7227,2.7266,2.7196,2.7197,2.7198,0,2.7129,2.7136,2.7166,2.7167,2.7172,2.7185,2.7193,2.7202,2.7205,2.7202,2.7207,2.7196,2.7212,2.7192,2.7214,2.7197,2.7203,2.7202,2.7204,2.7206,2.7183,2.722,2.7279,2.7285,2.7206,2.7205,2.7205,0,2.717,2.7187,2.7207,2.721,2.7211,2.7221,2.7221,2.7223,2.7229,2.7235,2.7239,2.7247,2.7252,2.7258,2.725,2.7236,2.7274,2.7252,2.7272,2.7273,2.7282,2.7282,2.7344,2.7284,2.7284,2.7284,2.7283,0,2.7217,2.7237,2.7226,2.7239,2.726,2.7249,2.7271,2.7269,2.7271,2.7283,2.7268,2.728,2.7268,2.7279,2.7273,2.7292,2.7294,2.7293,2.7291,2.7295,2.7295,2.7299,2.7297,2.7285,2.7285,2.7284,2.7284,0,2.7268,2.7261,2.7283,2.7281,2.7281,2.7297,2.7296,2.7308,2.7303,2.7319,2.7322,2.7315,2.7327,2.7319,2.7331,2.7326,2.7353,2.7347,2.7352,2.7351,2.7372,2.7371,2.7439,2.7448,2.7382,2.7382,2.7383,0,2.7299,2.7314,2.7314,2.7321,2.7323,2.7335,2.7341,2.733,2.7337,2.7341,2.7352,2.7363,2.7371,2.739,2.7386,2.7395,2.7389,2.7413,2.7391,2.7394,2.7391,2.7391,2.7393,2.7418,2.7419,2.7419,2.742,0,2.7356,2.7352,2.7362,2.737,2.7378,2.7384,2.7388,2.7395,2.7384,2.7393,2.7404,2.741,2.7422,2.7433,2.744,2.744,2.7429,2.7426,2.7432,2.7437,2.744,2.7439,2.7366,2.7425,2.7425,2.7424,2.7424,2.7424,2.7399,2.7411,2.7414,2.7425,2.7427,2.7432,2.7443,2.744,2.7449,2.7458,2.7451,2.7465,2.7467,2.7476,2.7477,2.7488,2.7479,2.7486,2.7488,2.7491,2.7494,2.7437,2.7489,2.7489,2.7489,2.7489,2.7489,0,2.7456,2.7456,2.7467,2.7474,2.7482,2.747,2.7474,2.7482,2.7495,2.7498,2.7506,2.7519,2.7529,2.7526,2.7535,2.7544,2.7539,2.7547,2.7547,2.7548,2.7502,2.7497,2.7551,2.7551,2.7551,2.7551,2.7551,2.7551,2.7487,2.7508,2.7504,2.7525,2.7525,2.7539,2.7543,2.7547,2.7549,2.7565,2.7574,2.7571,2.7572,2.758,2.7589,2.7588,2.7592,2.7602,2.7599,2.7557,2.7551,2.7545,2.754,2.7603,2.7603,2.7645,2.7645,2.7645]}]]